DW9750 Weather Reports


time (UTC)temp
C
wind
direction
speed
KPH
gust
KPH
rain 1hr
cm
rain 24hr
cm
rain mn
cm
humidity
%
barometer
mb
20260905174544 32 177 4.8 16.1 0.00 0.00 0.00 57 1012.3
20260905173101 31 167 1.6 11.3 0.00 0.00 0.00 59 1012.4
20260905171550 31 198 4.8 12.9 0.00 0.00 0.00 58 1012.6
20260905170038 31 119 4.8 16.1 0.00 0.00 0.00 62 1012.7
20260905164542 31 102 4.8 17.7 0.00 0.00 0.00 62 1012.7
20260905163033 30 71 4.8 12.9 0.00 0.00 0.00 64 1012.8
20260905161531 30 173 6.4 16.1 0.00 0.00 0.00 65 1012.9
20260905160048 30 184 6.4 12.9 0.00 0.00 0.00 66 1012.8
20260905154527 29 91 4.8 12.9 0.00 0.00 0.00 69 1012.8
20260905153028 29 229 3.2 9.7 0.00 0.00 0.00 71 1012.8
20260905151522 28 133 3.2 11.3 0.00 0.00 0.00 75 1012.8
20260905150019 28 154 3.2 12.9 0.00 0.00 0.00 76 1012.9
20260905144527 27 84 4.8 9.7 0.00 0.00 0.00 79 1012.8
20260905143012 26 211 3.2 8.0 0.00 0.00 0.00 82 1012.9
20260905141512 25 218 0.0 9.7 0.00 0.00 0.00 87 1012.9
20260905140002 25 139 0.0 4.8 0.00 0.00 0.00 89 1012.9
20260905134605 22 158 0.0 3.2 0.00 0.00 0.00 94 1012.7
20260905133058 22 21 0.0 0.0 0.00 0.00 0.00 95 1012.5
20260905131557 21 21 0.0 0.0 0.00 0.00 0.00 94 1012.6
20260905130056 21 94 0.0 0.0 0.00 0.00 0.00 94 1012.5
20260905124556 20 94 0.0 0.0 0.00 0.00 0.00 94 1012.2
20260905123051 20 94 0.0 0.0 0.00 0.00 0.00 94 1012.0
20260905121556 20 94 0.0 0.0 0.00 0.00 0.00 93 1011.9
20260905120100 20 94 0.0 0.0 0.00 0.00 0.00 93 1011.9
20260905114601 20 94 0.0 0.0 0.00 0.00 0.00 93 1011.8
20260905113055 21 94 0.0 0.0 0.00 0.00 0.00 92 1011.7
20260905111633 21 94 0.0 0.0 0.00 0.00 0.00 94 1011.7
20260905110044 21 94 0.0 0.0 0.00 0.00 0.00 92 1011.6
20260905104544 21 94 0.0 0.0 0.00 0.00 0.00 92 1011.5
20260905103042 21 94 0.0 0.0 0.00 0.00 0.00 91 1011.6
20260905101543 21 94 0.0 0.0 0.00 0.00 0.00 91 1011.6
20260905100041 21 94 0.0 0.0 0.00 0.00 0.00 91 1011.5
20260905094539 21 94 0.0 0.0 0.00 0.00 0.00 90 1011.5
20260905093042 21 94 0.0 0.0 0.00 0.00 0.00 90 1011.4
20260905091537 21 94 0.0 0.0 0.00 0.00 0.00 88 1011.4
20260905090036 22 94 0.0 0.0 0.00 0.00 0.00 87 1011.4
20260905084534 22 76 0.0 0.0 0.00 0.00 0.00 91 1011.4
20260905083032 22 54 0.0 0.0 0.00 0.00 0.00 90 1011.4
20260905081530 22 54 0.0 0.0 0.00 0.00 0.00 88 1011.5
20260905080033 22 54 0.0 0.0 0.00 0.00 0.00 87 1011.6
20260905074527 22 54 0.0 0.0 0.00 0.00 0.00 86 1011.7
20260905073035 23 54 0.0 3.2 0.00 0.00 0.00 85 1011.9
20260905071525 22 92 1.6 4.8 0.00 0.00 0.00 85 1011.8
20260905070043 22 94 0.0 0.0 0.00 0.00 0.00 84 1011.9
20260905064537 23 94 0.0 0.0 0.00 0.00 0.00 83 1011.8
20260905063021 23 94 0.0 0.0 0.00 0.00 0.00 83 1012.0
20260905061519 23 94 0.0 0.0 0.00 0.00 0.00 82 1012.0
20260905060020 24 94 0.0 0.0 0.00 0.00 0.00 80 1011.8
20260905054523 24 90 1.6 8.0 0.00 0.00 0.00 79 1011.7
20260905053012 24 83 0.0 3.2 0.00 0.00 0.00 79 1011.9
20260905051518 24 58 0.0 0.0 0.00 0.00 0.00 79 1011.9
20260905050009 24 58 0.0 0.0 0.00 0.00 0.00 78 1011.9
20260905044508 24 58 0.0 0.0 0.00 0.00 0.00 77 1011.9
20260905043008 25 58 0.0 0.0 0.00 0.00 0.00 76 1012.0
20260905041507 25 88 0.0 4.8 0.00 0.00 0.00 74 1011.8
20260905040014 25 109 0.0 4.8 0.00 0.00 0.00 73 1011.8
20260905034517 26 99 1.6 4.8 0.00 0.00 0.00 72 1011.7
20260905033005 26 109 1.6 8.0 0.00 0.00 0.00 71 1011.6
20260905031504 26 97 1.6 9.7 0.00 0.00 0.00 70 1011.6
20260905030004 26 83 3.2 8.0 0.00 0.00 0.00 69 1011.4
20260905024503 26 90 3.2 9.7 0.00 0.00 0.00 70 1011.2
20260905023004 26 189 0.0 0.0 0.00 0.00 0.00 68 1010.9
20260905021502 26 189 0.0 0.0 0.00 0.00 0.00 67 1010.6
20260905020001 27 189 0.0 0.0 0.00 0.00 0.00 65 1010.6
20260905014500 27 189 0.0 0.0 0.00 0.00 0.00 66 1010.4
20260905013101 27 189 0.0 0.0 0.00 0.00 0.00 65 1010.3
20260905013001 27 189 0.0 0.0 0.00 0.00 0.00 66 1010.3
20260905011606 27 189 0.0 0.0 0.00 0.00 0.00 66 1010.2
20260905010059 27 189 0.0 0.0 0.00 0.00 0.00 65 1010.2
20260905004604 28 189 0.0 0.0 0.00 0.00 0.00 64 1010.3
20260905003101 28 189 0.0 0.0 0.00 0.00 0.00 62 1010.3
20260905001607 29 189 0.0 3.2 0.00 0.00 0.00 61 1010.1
20260904234605 29 131 1.6 9.7 0.00 0.00 0.00 59 1009.9
20260904233056 30 90 1.6 6.4 0.00 0.00 0.00 61 1009.7
20260904231555 30 135 4.8 11.3 0.00 0.00 0.00 61 1009.5
20260904230054 30 181 3.2 11.3 0.00 0.00 0.00 63 1009.5
20260904224652 30 132 3.2 11.3 0.00 0.00 0.00 60 1009.6
20260904223053 31 150 3.2 11.3 0.00 0.00 0.00 59 1009.8
20260904221553 31 169 3.2 9.7 0.00 0.00 0.00 58 1009.9
20260904220104 31 193 6.4 12.9 0.00 0.00 0.00 57 1010.0
20260904214544 30 184 4.8 9.7 0.00 0.00 0.00 64 1010.0
20260904213044 30 78 4.8 9.7 0.00 0.00 0.00 64 1010.2
20260904211552 30 152 3.2 8.0 0.00 0.00 0.00 65 1010.4
20260904210046 30 110 3.2 11.3 0.00 0.00 0.00 64 1010.6
20260904204541 30 156 1.6 11.3 0.00 0.00 0.00 64 1010.7
20260904203041 30 136 3.2 9.7 0.00 0.00 0.00 63 1010.9
20260904201540 31 155 3.2 12.9 0.00 0.00 0.00 61 1010.9
20260904200048 31 89 1.6 11.3 0.00 0.00 0.00 62 1011.0
20260904194620 31 149 4.8 14.5 0.00 0.00 0.00 61 1011.0
20260904193040 30 202 3.2 14.5 0.00 0.00 0.00 63 1011.2
20260904191533 30 220 1.6 11.3 0.00 0.00 0.00 62 1011.3
20260904190032 30 118 6.4 11.3 0.00 0.00 0.00 62 1011.4
20260904184530 30 90 4.8 11.3 0.00 0.00 0.00 64 1011.4
20260904183030 30 85 4.8 16.1 0.00 0.00 0.00 65 1011.7
20260904181529 30 187 3.2 12.9 0.00 0.00 0.00 65 1011.7
20260904180029 30 120 3.2 11.3 0.00 0.00 0.00 65 1011.9